Weather History for Arlington, WA

Change the Weather History Date:

Thursday, May 16, 2013

  Actual Average Record
Temperature  
Mean Temperature 58 °F -  
Max Temperature 66 °F 56 °F 78 °F (2006)
Min Temperature 50 °F 45 °F 33 °F (1998)
Degree Days  
Heating Degree Days 7    
Growing Degree Days 8 (Base 50)    
Moisture  
Dew Point 50 °F    
Average Humidity 79    
Maximum Humidity 94    
Minimum Humidity 60    
Precipitation  
Precipitation 0.00 in - - ()
Sea Level Pressure  
Sea Level Pressure 29.97 in    
Wind  
Wind Speed 2 mph (NW)    
Max Wind Speed 14 mph    
Max Gust Speed -    
Visibility 9 miles    
Events      
Averages and records for this station are not official NWS values.
T = Trace of Precipitation, MM = Missing Value Source: NWS Daily Summary

Daily Weather History Graph

Daily Weather History Graph

Search for Another Location

Airport:

Trip Planner

Search our weather history database for the weather conditions in past years. The results will help you decide how hot, cold, wet, or windy it might be!

Date:

Astronomy

May. 16, 2013 Rise Set
Actual Time 5:27 AM PDT 8:43 PM PDT
Civil Twilight 4:50 AM PDT 9:20 PM PDT
Nautical Twilight 4:01 AM PDT 10:10 PM PDT
Astronomical Twilight 2:58 AM PDT 11:13 PM PDT
Moon 11:15 AM PDT (5/16) 12:59 AM PDT (5/16)
Length of Visible Light 16h 30m
Length of Day
15h 15m
Waxing Crescent, 36% of the Moon is Illuminated
May 16
Waxing Crescent
May 17
First Quarter
May 24
Full
May 31
Last Quarter
Jun 8
New

Hourly Weather History & Observations

Time (PDT) Temp. Dew Point Humidity Pressure Visibility Wind Dir Wind Speed Gust Speed Precip Events Conditions
12:15 AM 51.8 °F 48.2 °F 88% 30.04 in 10.0 mi Calm Calm - N/A   Unknown
12:35 AM 51.8 °F 48.2 °F 88% 30.04 in 10.0 mi Calm Calm - N/A   Unknown
12:55 AM 51.8 °F 48.2 °F 88% 30.04 in 10.0 mi Calm Calm - N/A   Unknown
1:15 AM 51.8 °F 48.2 °F 88% 30.04 in 10.0 mi Calm Calm - N/A   Unknown
1:35 AM 51.8 °F 48.2 °F 88% 30.03 in 10.0 mi Calm Calm - N/A   Unknown
1:55 AM 51.8 °F 48.2 °F 88% 30.03 in 10.0 mi Calm Calm - N/A   Unknown
2:15 AM 51.8 °F 48.2 °F 88% 30.03 in 10.0 mi Calm Calm - N/A   Unknown
2:35 AM 51.8 °F 50.0 °F 94% 30.02 in 10.0 mi Calm Calm - N/A   Unknown
2:55 AM 51.8 °F 48.2 °F 88% 30.02 in 10.0 mi Calm Calm - N/A   Unknown
3:15 AM 51.8 °F 48.2 °F 88% 30.02 in 5.0 mi Calm Calm - N/A   Unknown
3:35 AM 51.8 °F 48.2 °F 88% 30.01 in 10.0 mi Calm Calm - N/A   Unknown
3:55 AM 51.8 °F 48.2 °F 88% 30.01 in 7.0 mi Calm Calm - N/A   Unknown
4:15 AM 51.8 °F 48.2 °F 88% 30.01 in 10.0 mi Calm Calm - N/A   Unknown
4:55 AM 51.8 °F 48.2 °F 88% 30.01 in 10.0 mi Calm Calm - N/A   Unknown
5:15 AM 51.8 °F 48.2 °F 88% 30.00 in 10.0 mi Calm Calm - N/A   Unknown
5:35 AM 51.8 °F 48.2 °F 88% 30.01 in 4.0 mi Calm Calm - N/A   Unknown
5:55 AM 51.8 °F 48.2 °F 88% 30.01 in 5.0 mi Calm Calm - N/A   Unknown
6:15 AM 51.8 °F 48.2 °F 88% 30.01 in 3.0 mi Calm Calm - N/A   Unknown
6:35 AM 51.8 °F 48.2 °F 88% 30.01 in 4.0 mi Calm Calm - N/A   Unknown
6:55 AM 51.8 °F 48.2 °F 88% 30.01 in 4.0 mi Calm Calm - N/A   Unknown
7:15 AM 51.8 °F 48.2 °F 88% 30.01 in 4.0 mi NE 3.5 mph - N/A   Unknown
7:35 AM 51.8 °F 50.0 °F 94% 30.01 in 6.0 mi NNE 4.6 mph - N/A   Unknown
7:55 AM 51.8 °F 50.0 °F 94% 30.01 in 10.0 mi Calm Calm - N/A   Unknown
8:15 AM 53.6 °F 50.0 °F 88% 30.01 in 4.0 mi Calm Calm - N/A   Unknown
8:35 AM 53.6 °F 50.0 °F 88% 30.01 in 5.0 mi Calm Calm - N/A   Unknown
8:55 AM 53.6 °F 51.8 °F 94% 30.01 in 5.0 mi NNE 3.5 mph - N/A   Unknown
9:15 AM 53.6 °F 51.8 °F 94% 30.01 in 8.0 mi Calm Calm - N/A   Unknown
9:35 AM 55.4 °F 51.8 °F 88% 30.01 in 10.0 mi Calm Calm - N/A   Unknown
9:55 AM 55.4 °F 51.8 °F 88% 30.01 in 10.0 mi Calm Calm - N/A   Unknown
10:15 AM 55.4 °F 51.8 °F 88% 30.00 in 10.0 mi Calm Calm - N/A   Unknown
10:35 AM 55.4 °F 51.8 °F 88% 30.00 in 10.0 mi Calm Calm - N/A   Unknown
10:55 AM 57.2 °F 51.8 °F 82% 30.00 in 10.0 mi Calm Calm - N/A   Unknown
11:15 AM 59.0 °F 51.8 °F 77% 30.00 in 10.0 mi Calm Calm - N/A   Unknown
11:35 AM 60.8 °F 53.6 °F 77% 29.99 in 10.0 mi Calm Calm - N/A   Unknown
12:15 PM 62.6 °F 51.8 °F 68% 29.98 in 10.0 mi Calm Calm - N/A   Unknown
12:35 PM 62.6 °F 51.8 °F 68% 29.97 in 10.0 mi WNW 3.5 mph - N/A   Unknown
12:55 PM 62.6 °F 51.8 °F 68% 29.96 in 10.0 mi NNW 4.6 mph - N/A   Unknown
1:15 PM 64.4 °F 51.8 °F 64% 29.96 in 10.0 mi Calm Calm - N/A   Unknown
1:35 PM 66.2 °F 51.8 °F 60% 29.95 in 10.0 mi NNW 5.8 mph - N/A   Unknown
1:55 PM 64.4 °F 53.6 °F 68% 29.95 in 10.0 mi NW 9.2 mph - N/A   Unknown
2:15 PM 64.4 °F 53.6 °F 68% 29.94 in 10.0 mi NW 8.1 mph - N/A   Unknown
2:35 PM 66.2 °F 53.6 °F 64% 29.94 in 10.0 mi NW 8.1 mph - N/A   Unknown
3:15 PM 66.2 °F 53.6 °F 64% 29.92 in 10.0 mi WNW 11.5 mph - N/A   Unknown
3:35 PM 66.2 °F 53.6 °F 64% 29.92 in 10.0 mi NW 12.7 mph - N/A   Unknown
3:55 PM 66.2 °F 53.6 °F 64% 29.91 in 10.0 mi WNW 12.7 mph - N/A   Unknown
4:15 PM 66.2 °F 53.6 °F 64% 29.91 in 10.0 mi WNW 13.8 mph - N/A   Unknown
4:35 PM 66.2 °F 53.6 °F 64% 29.90 in 10.0 mi WNW 12.7 mph - N/A   Unknown
4:55 PM 66.2 °F 53.6 °F 64% 29.90 in 10.0 mi WNW 9.2 mph - N/A   Unknown
5:15 PM 66.2 °F 53.6 °F 64% 29.89 in 10.0 mi West 12.7 mph - N/A   Unknown
5:35 PM 66.2 °F 53.6 °F 64% 29.89 in 10.0 mi WNW 12.7 mph - N/A   Unknown
5:55 PM 66.2 °F 51.8 °F 60% 29.89 in 10.0 mi WNW 11.5 mph - N/A   Unknown
6:15 PM 64.4 °F 51.8 °F 64% 29.89 in 10.0 mi WNW 12.7 mph - N/A   Unknown
6:35 PM 64.4 °F 51.8 °F 64% 29.89 in 10.0 mi NW 10.4 mph - N/A   Unknown
6:55 PM 64.4 °F 51.8 °F 64% 29.89 in 10.0 mi NW 10.4 mph - N/A   Unknown
7:15 PM 62.6 °F 51.8 °F 68% 29.89 in 10.0 mi NW 9.2 mph - N/A   Unknown
7:35 PM 62.6 °F 51.8 °F 68% 29.90 in 10.0 mi WNW 9.2 mph - N/A   Unknown
7:55 PM 60.8 °F 51.8 °F 72% 29.90 in 10.0 mi NW 12.7 mph - N/A   Unknown
8:15 PM 60.8 °F 50.0 °F 68% 29.91 in 10.0 mi NW 10.4 mph - N/A   Unknown
8:35 PM 57.2 °F 50.0 °F 77% 29.91 in 10.0 mi WNW 8.1 mph - N/A   Unknown
8:55 PM 57.2 °F 48.2 °F 72% 29.92 in 10.0 mi WNW 5.8 mph - N/A   Unknown
9:15 PM 57.2 °F 48.2 °F 72% 29.93 in 10.0 mi Calm Calm - N/A   Unknown
9:35 PM 55.4 °F 48.2 °F 77% 29.94 in 10.0 mi Calm Calm - N/A   Unknown
9:55 PM 53.6 °F 48.2 °F 82% 29.94 in 10.0 mi Calm Calm - N/A   Unknown
10:15 PM 55.4 °F 48.2 °F 77% 29.95 in 10.0 mi Calm Calm - N/A   Unknown
10:35 PM 53.6 °F 48.2 °F 82% 29.95 in 10.0 mi North - - N/A   Unknown
10:55 PM 53.6 °F 48.2 °F 82% 29.95 in 10.0 mi Calm Calm - N/A   Unknown
11:15 PM 51.8 °F 48.2 °F 88% 29.96 in 10.0 mi South 4.6 mph - N/A   Unknown
11:35 PM 50.0 °F 46.4 °F 87% 29.97 in 10.0 mi SSE 3.5 mph - N/A   Unknown
11:55 PM 51.8 °F 48.2 °F 88% 29.97 in 10.0 mi Calm Calm - N/A   Unknown